Tracking 19795 objects as of 17-Jul-2019
HD Live streaming from Space Station
objects crossing your sky now

FLOCK 3S 3

Track FLOCK 3S 3 now!
10-day predictions
FLOCK 3S 3 is classified as:


NORAD ID: 43788
Int'l Code: 2018-099AG
Perigee: 579.2 km
Apogee: 598.3 km
Inclination: 97.7 °
Period: 96.3 minutes
Semi major axis: 6959 km
RCS: Unknown
Launch date: December 3, 2018
Source: United States (US)
Launch site: AIR FORCE WESTERN TEST RANGE (AFWTR)
aabbcc
Your satellite tracking list
Your tracking list is empty




NASA's NSSDC Master Catalog

Two Line Element Set (TLE):
1 43788U 18099AG  19198.15391715  .00000721  00000-0  70767-4 0  9998
2 43788  97.7443 269.7901 0013713 230.4927 129.5082 14.95231986 33676
Source of the keplerian elements: AFSPC